Location: WWIN Observatory
(34.8953°N, 91.9583°W)
Time: 14:41:01
(UTC-05:00)

Daily predictions for brighter satellites

Satellite Brightness Start Highest point End
(mag) Time Altitude Azimuth Time Altitude Azimuth Time Altitude Azimuth
Meteor 1-11 Rocket 4.1 20:06:25 10° SSE 20:11:57 46° E 20:17:24 10° NNE
FREGAT/IRIS 3.2 20:10:38 10° S 20:13:36 61° W 20:16:37 10° NNW
GPS 2-05 Rocket1 2.8 20:10:22 10° W 20:13:49 80° SSW 20:17:11 10° ESE
Okean 2 Rocket 3.8 20:12:08 10° SSW 20:16:34 61° W 20:21:03 10° N
Delta 2 Rocket 3.2 20:13:59 10° WSW 20:17:42 76° SSE 20:21:55 10° E
SJ-6B 2.9 20:14:15 10° SSE 20:18:18 90° SSE 20:22:26 10° NNW
Cosmos 2360 Rocket 2.8 20:16:36 10° SSE 20:21:36 34° ESE 20:26:36 10° NE
Cosmos 44 Rocket 4.1 20:18:32 10° NW 20:23:09 51° WSW 20:27:50 10° S
Cosmos 1420 Rocket 4.4 20:19:16 10° SSW 20:24:24 68° WNW 20:29:34 10° NNE
SeaSat 1 3.3 20:20:17 10° NE 20:24:30 28° ESE 20:28:41 10° SSE
HJ-1C 3.6 20:24:01 10° S 20:27:24 74° W 20:30:48 10° NNW
Cosmos 1850 Rocket 4.3 20:24:38 10° N 20:29:48 50° ENE 20:34:54 10° SE
Cosmos 1655 Rocket 4.2 20:23:57 10° S 20:30:14 80° W 20:36:36 10° N
COSMOS 2428 4.1 20:27:15 10° SE 20:30:43 17° E 20:34:10 10° ENE
Meteosat 1 Rocket2 4.1 20:30:15 10° WSW 20:34:20 38° SSE 20:38:59 14° ESE
Resurs 1-3 3.7 20:32:27 10° SSE 20:36:44 56° ENE 20:41:02 10° N
Meteor 1-19 Rocket 4.3 20:33:48 10° N 20:39:40 78° E 20:45:24 10° SSE
Cosmos 614 Rocket 4.2 20:38:10 10° NNW 20:43:18 74° WSW 20:48:26 10° S
Meteor 1-5 Rocket 4.2 20:38:33 10° SSE 20:43:40 49° E 20:48:45 10° NNE
Cosmos 1140 Rocket 4.1 20:41:44 10° NNW 20:46:52 57° WSW 20:51:59 10° S
Cosmos 1300 Rocket 3.4 20:43:41 10° S 20:47:58 77° E 20:52:17 10° N
Cosmos 1536 2.7 20:44:53 10° S 20:48:56 78° E 20:53:01 10° N
USA 186 1.8 20:45:50 10° SSE 20:49:10 73° ENE 20:52:32 10° N
Cosmos 1025 Rocket 4.2 20:45:51 10° NNE 20:49:20 24° ENE 20:50:36 21° ESE
Cosmos 1607 4.2 20:43:18 10° NNW 20:49:39 56° ENE 20:54:25 18° SE
Lacrosse 5 rocket 3.6 20:47:58 10° WNW 20:50:38 19° WSW 20:53:24 10° SSW
Okean 1 Rocket 3.1 20:46:52 10° S 20:51:05 52° E 20:55:20 10° NNE
CZ-2D R/B 3.5 20:47:47 10° S 20:51:37 69° WSW 20:55:28 10° NNW
Cosmos 1939 Rocket 3.4 20:51:36 21° SE 20:53:43 39° ENE 20:57:23 10° N
Spot 2 Rocket 3.5 20:50:05 10° SSE 20:55:10 85° ENE 21:00:17 10° NNW
Tiangong 1 0.9 20:54:29 10° NW 20:57:15 59° NNE 20:58:00 39° E
Meteor 2-4 Rocket 3.7 20:52:54 10° N 20:58:33 80° E 21:04:20 10° S
Helios 1A 3.9 21:01:08 26° ESE 21:02:19 31° ENE 21:06:04 10° N
Cosmos 1818 3.9 21:00:21 10° S 21:05:20 39° ESE 21:10:22 10° NE
OAO 1 Rocket 4.4 21:00:48 10° W 21:06:10 88° N 21:09:26 24° E
ATLAS 3B R/B 3.2 21:00:31 10° NNW 21:06:46 40° NE 21:09:58 25° ESE
ERS-1 Rocket 4.2 21:06:57 22° E 21:07:55 23° ENE 21:11:50 10° NNE
YAOGAN 6 2.9 21:10:08 39° E 21:10:34 41° ENE 21:13:53 10° N
CZ-4B DEB 4.4 21:11:50 41° SE 21:12:52 65° ENE 21:16:22 10° N
ASTRO E2 3.7 21:10:50 10° SW 21:14:09 29° SSE 21:14:09 29° SSE
USA 267 3.4 21:10:52 19° SSE 21:15:42 69° SW 21:22:15 10° NW
Okean 1-7 Rocket 3.9 21:11:25 10° N 21:15:47 47° E 21:16:59 38° SE
Cosmos 2266 Rocket 4.1 21:11:26 10° SSW 21:17:27 74° W 21:23:30 10° N
Resurs 01 Rocket 2.8 21:13:33 10° S 21:17:45 42° W 21:22:00 10° NNW
Abrixas 3.2 21:16:52 10° WSW 21:19:21 43° NW 21:19:46 39° N
Meteor 1-29 4.5 21:19:11 10° NNE 21:20:46 23° NE 21:20:46 23° NE
Envisat 3.4 21:19:54 11° S 21:24:38 62° W 21:29:41 10° NNW
Cosmos 2263 Rocket 2.7 21:24:38 10° NNW 21:30:12 57° WSW 21:34:06 19° S
Aureole 3 Rocket 4.5 21:23:29 10° N 21:30:29 39° ENE 21:31:41 36° E
SPOT 5 4.4 21:31:51 20° NE 21:31:51 20° NE 21:34:31 10° NNE
Lacrosse 5 4.2 21:29:47 10° W 21:33:54 24° NW 21:38:02 10° NNE
Nadezhda 2 Rocket 4.4 21:28:35 10° S 21:34:43 88° E 21:40:59 10° N
BREEZE-M DEB (TANK) 4.5 21:31:09 10° WNW 21:35:37 62° SW 21:45:34 24° SE
Cosmos 1844 Rocket 3.6 21:31:16 10° N 21:36:18 32° ENE 21:36:49 31° ENE
Cosmos 2315 Rocket 3.9 21:30:18 10° N 21:36:36 82° E 21:39:59 30° S
Cosmos 2278 Rocket 4.2 21:35:30 10° NNE 21:37:58 13° NE 21:38:10 13° NE
Spot 1 4.4 21:40:52 52° SSE 21:42:06 77° ENE 21:47:09 10° N
Atlas Centaur 2 3.6 21:34:57 10° W 21:42:33 39° SSW 21:45:01 31° SSE
Helios 1B rocket 2.5 21:39:06 10° N 21:43:12 75° WNW 21:44:31 42° SSW
Cosmos 1515 3.9 21:39:44 10° N 21:43:01 63° NNE 21:43:01 63° NNE
H-2A R/B 3.4 21:46:55 24° NE 21:46:55 24° NE 21:50:01 10° NNE
Cosmos 2237 4.4 21:40:20 10° SSW 21:45:59 69° WNW 21:51:41 10° NNE
Cosmos 1302 Rocket 3.9 21:40:59 10° SSW 21:46:16 87° WNW 21:51:35 10° NNE
Cosmos 1892 Rocket 4.3 21:42:38 10° N 21:45:55 40° NE 21:45:55 40° NE
ATLAS 2AS CENTAUR R/B 4.4 21:40:21 10° WSW 21:47:27 39° NW 21:54:56 10° NNE
Cosmos 2219 Rocket 2.7 21:50:02 42° ENE 21:50:02 42° ENE 21:54:17 10° NNE
Cosmos 1745 Rocket 4.3 21:50:53 44° E 21:50:53 44° E 21:56:21 10° NNE
Cosmos 1500 3.7 21:54:32 60° NW 21:54:32 60° NW 21:58:00 10° N
Cosmos 1544 Rocket 4.3 21:57:19 44° NNE 21:57:19 44° NNE 22:00:26 10° NNE
Cosmos 1486 Rocket 4.0 21:51:02 10° N 21:56:04 60° ENE 21:56:04 60° ENE
NOSS 3-4 (A) 3.4 21:51:54 10° SSW 21:58:04 63° ESE 22:04:22 10° NE
NOSS 3-4 (C) 3.4 21:52:01 10° SSW 21:58:10 62° ESE 22:04:28 10° NE
Delta 2 Rocket 3.8 21:56:09 10° W 21:59:34 62° WNW 21:59:34 62° WNW
SeaSat 1 4.2 21:57:36 10° N 22:01:57 32° WNW 22:06:17 10° WSW
Terra 4.2 22:04:46 12° NE 22:04:46 12° NE 22:05:31 10° NNE
Okean 2 4.3 22:01:31 10° NNW 22:05:23 43° W 22:05:30 42° W
Cosmos 2360 Rocket 4.1 22:00:44 10° WSW 22:05:33 29° WNW 22:10:23 10° N
Cosmos 1975 4.1 22:09:21 38° NNW 22:09:21 38° NNW 22:11:57 10° N
Cosmos 1455 Rocket 4.2 22:09:49 38° NNE 22:09:49 38° NNE 22:12:35 10° N
COSMOS 2428 3.3 22:08:48 10° SW 22:14:25 57° WNW 22:20:03 10° NNE
Cosmos 1844 4.1 22:15:57 10° NNW 22:20:44 53° NNE 22:20:44 53° NNE
MetOp-A 4.3 22:24:20 68° W 22:24:20 68° W 22:29:29 10° NNW
Cosmos 2333 Rocket 3.0 22:29:06 43° NNE 22:29:06 43° NNE 22:32:50 10° NNE
BREEZE M DEB (TANK) 4.3 22:26:10 10° WSW 22:31:52 28° NW 22:32:14 28° NNW
Cosmos 2237 Rocket 3.9 22:42:11 23° NNE 22:42:11 23° NNE 22:44:10 10° NNE
Nadezhda 1 Rocket 4.2 22:37:13 10° N 22:42:45 70° N 22:42:45 70° N
NOSS 3-2 (A) 3.9 22:37:13 10° NNW 22:44:57 84° ENE 22:45:10 83° E
ERS-1 Rocket 4.4 22:46:58 33° W 22:46:58 33° W 22:51:00 10° NNW
USA 238 DEB 4.2 22:41:24 10° NW 22:48:11 50° WSW 22:48:31 49° WSW
USA 238 4.2 22:41:30 10° NW 22:48:18 50° WSW 22:48:36 50° WSW
ARGOS 4.2 22:54:02 40° WNW 22:54:02 40° WNW 22:58:12 10° NNW
ATLAS 3B R/B 3.7 22:51:29 10° NW 22:57:14 33° WSW 22:57:14 33° WSW
Cosmos 1844 Rocket 4.4 23:15:11 10° NW 23:18:29 26° WNW 23:18:29 26° WNW
Cosmos 2278 Rocket 3.7 23:17:03 10° NNW 23:20:01 32° NNW 23:20:01 32° NNW
H-2A R/B 4.2 23:27:33 21° NW 23:27:33 21° NW 23:29:38 10° NW
NOSS 3-2 (C) 4.3 23:17:43 10° NW 23:24:12 63° WNW 23:24:12 63° WNW
Cosmos 2219 Rocket 4.3 23:31:37 19° WNW 23:33:02 21° WNW 23:37:13 10° N
CENTAUR R/B 3.6 23:37:28 10° NNW 23:43:45 54° N 23:43:45 54° N
